Tracking 22993 objects as of 11-May-2021
HD Live streaming from Space Station
objects crossing your sky now

ARIANE 5 R/B

Track ARIANE 5 R/B now!


NORAD ID: 41795
Int'l Code: 2016-060C
Perigee: 255.1 km
Apogee: 33,717.7 km
Inclination: 5.7 °
Period: 592.1 minutes
Semi major axis: 23357 km
RCS: Unknown
Launch date: October 5, 2016
Source: France (FR)
Launch site: FRENCH GUIANA (FRGUI)

Note: This is a ROCKET BODY
aabbcc
Your satellite tracking list
Your tracking list is empty




NASA's NSSDC Master Catalog

Two Line Element Set (TLE):
1 41795U 16060C   21130.65627541  .00000627  00000-0  13188-3 0  9991
2 41795   5.7086 137.0999 7163165 181.7255 172.8592  2.43201463 39562
Source of the keplerian elements: AFSPC